Location: ??????
(55.7522°N, 37.6156°E)
Time: 17:19:17
(UTC+00:00)

MSX - Pass Details

Date: 14 June 2025
Orbit: 893 x 905 km, 99.0° (Epoch: 13 July)

Event Time Altitude Azimuth Distance (km) Brightness Sun altitude
Rises 23:36:32 0° 16° (NNE) 3,532 9.0 -6.5°
Reaches altitude 10° 23:38:57 10° 17° (NNE) 2,585 7.9 -6.3°
Maximum altitude 23:44:44 89° 102° (ESE) 905 3.9 -5.9°
Drops below altitude 10° 23:50:28 10° 199° (SSW) 2,562 5.6 -5.5°
Enters shadow 23:51:26 - 199° (SSW) 2,946 5.9 -5.4°
